Flag for Germany Weather for the Past 2 Weeks in Leutkirch im Allgäu, Baden-Württemberg, Germany

Now
46 °F

Sunny.


Feels Like: 46 °F
Forecast: 41 / 48 °F
Wind: 1 mph from North

Location: Friedrichshafen Airport

Current Time: Apr 30, 2016 at 9:17:05 AM

Latest Report: Apr 30, 2016 at 8:20 AM


Visibility: 10 mi

Pressure: 30.04 "Hg (27.74 "Hg at 656m altitude)

Humidity: 76%

Dew Point: 39 °F

Location of Leutkirch im AllgäuLocation

Historic Weather in Leutkirch im Allgäu — Graph

°F

Leutkirch im Allgäu Temperature Yesterday

Maximum temperature yesterday: 59 °F (at 4:50 PM)
Minimum temperature yesterday: 30 °F (at 5:20 AM)
Average temperature yesterday: 46 °F

High & Low Weather Summary for the Past Weeks

 TemperatureHumidityPressure
High70 °F (Apr 22, 2:50 PM)100% (Apr 22, 3:50 AM)30.33 "Hg (Apr 22, 3:50 AM)
Low28 °F (Apr 28, 5:50 AM)29% (Apr 19, 5:50 PM)29.62 "Hg (Apr 16, 11:50 PM)
Average46 °F73%29.96 "Hg
* Reported Apr 15 7:20 AM — Apr 30 7:50 AM, Leutkirch im Allgäu, Weather by CustomWeather, © 2016

Note: Actual official high and low records may vary slightly from our data, if they occured in-between our weather recording intervals... More about our weather records

Advertising

Leutkirch im Allgäu Weather History for the Previous 24 Hours

Scroll right to see more
 ConditionsComfort  
Time TempWeatherWind HumidityBarometerVisibility
7:50 AM
Sat, Apr 30
43 °FSunny.2 mph81%30.04 "Hg10 mi
7:20 AM41 °FSunny.No wind87%30.01 "Hg10 mi
6:50 AM37 °FClear.No wind93%30.01 "Hg10 mi
6:20 AM37 °FClear.2 mph87%30.01 "Hg10 mi
5:50 AM37 °FClear.No wind93%30.01 "Hg10 mi
5:20 AM39 °FClear.2 mph87%30.01 "Hg10 mi
4:50 AM39 °FClear.2 mph87%30.01 "Hg10 mi
4:20 AM37 °FClear.7 mph93%30.01 "Hg10 mi
3:50 AM37 °FClear.2 mph87%30.01 "Hg10 mi
2:50 AM37 °FClear.3 mph87%30.01 "Hg10 mi
1:50 AM37 °FClear.2 mph93%30.01 "Hg10 mi
1:20 AM37 °FChilly.No wind93%30.01 "HgN/A
12:50 AM37 °FChilly.3 mph93%30.01 "HgN/A
12:20 AM39 °FClear.3 mph87%30.01 "Hg10 mi
11:50 PM
Fri, Apr 29
41 °FQuite cool.2 mph87%30.01 "HgN/A
11:20 PM41 °FQuite cool.No wind81%30.01 "HgN/A
10:50 PM43 °FQuite cool.1 mph76%30.01 "HgN/A
10:20 PM45 °FClear.3 mph71%30.01 "Hg10 mi
9:50 PM45 °FClear.No wind76%30.01 "Hg10 mi
9:20 PM48 °FSunny.No wind62%30.01 "Hg10 mi
8:50 PM50 °FSunny.1 mph54%30.01 "Hg10 mi
8:20 PM54 °FSunny.1 mph51%30.01 "Hg10 mi
7:50 PM55 °FSunny.3 mph47%30.01 "Hg10 mi
7:20 PM57 °FSunny.5 mph44%30.01 "Hg10 mi
6:50 PM59 °FPassing clouds.5 mph42%30.01 "HgN/A
6:20 PM59 °FPassing clouds.6 mph42%30.01 "HgN/A
5:50 PM59 °FPassing clouds.6 mph39%30.01 "HgN/A
5:20 PM59 °FPassing clouds.5 mph39%30.01 "HgN/A
4:50 PM59 °FSunny.2 mph39%30.01 "Hg10 mi
4:20 PM57 °FPassing clouds.6 mph39%30.01 "HgN/A
3:50 PM57 °FPassing clouds.7 mph41%30.01 "HgN/A
3:20 PM57 °FPassing clouds.8 mph41%30.01 "HgN/A
2:50 PM57 °FPassing clouds.7 mph39%30.04 "HgN/A
2:20 PM57 °FSunny.5 mph36%30.04 "Hg10 mi
1:50 PM55 °FPassing clouds.6 mph38%30.04 "HgN/A
1:20 PM55 °FPassing clouds.6 mph41%30.04 "HgN/A
12:50 PM54 °FSunny.6 mph47%30.04 "Hg10 mi
12:20 PM52 °FPassing clouds.5 mph50%30.04 "HgN/A
11:50 AM52 °FPassing clouds.5 mph54%30.07 "HgN/A
11:20 AM50 °FPassing clouds.2 mph58%30.07 "HgN/A
10:50 AM50 °FPassing clouds.3 mph58%30.07 "HgN/A
10:20 AM46 °FSunny.3 mph71%30.07 "Hg10 mi
9:50 AM46 °FSunny.2 mph62%30.07 "Hg10 mi
9:20 AM45 °FSunny.2 mph71%30.07 "Hg10 mi
Weather by CustomWeather, © 2016

See weather overviewHow to use our weather pages